When you browse on this site, cookies collect data to enhance your experience and personalize the content and advertising you see.
Visit our Privacy Policy to learn more. By continuing to use the site, you agree to this use of cookies and data.
EN

Hourly Weather Shapih

Today, 24 September, Thursday

Time Temperature Precipitation Wind Pressure Humidity
00:00 +12°C° 0 mm 1 mps 631 mmHg 92%
01:00 +12°C° 0 mm 1 mps 631 mmHg 91%
02:00 +11°C° 0 mm 0 mps 631 mmHg 91%
03:00 +12°C° 0 mm 1 mps 631 mmHg 91%
04:00 +11°C° 0 mm 1 mps 631 mmHg 91%
05:00 +10°C° 0 mm 0 mps 631 mmHg 92%
06:00 +10°C° 0 mm 0 mps 631 mmHg 92%
07:00 +13°C° 0 mm 1 mps 631 mmHg 88%
08:00 +14°C° 0 mm 1 mps 632 mmHg 85%
09:00 +16°C° 0 mm 1 mps 633 mmHg 81%
10:00 +17°C° 0.2 mm 2 mps 633 mmHg 77%
11:00 +18°C° 0.2 mm 2 mps 633 mmHg 73%
12:00 +19°C° 0.2 mm 2 mps 633 mmHg 69%
13:00 +19°C° 0.1 mm 2 mps 633 mmHg 67%
14:00 +19°C° 0.1 mm 2 mps 633 mmHg 64%
15:00 +19°C° 0.1 mm 2 mps 633 mmHg 62%
16:00 +18°C° 0 mm 1 mps 632 mmHg 71%
17:00 +15°C° 0 mm 1 mps 631 mmHg 80%
18:00 +13°C° 0 mm 1 mps 631 mmHg 89%
19:00 +13°C° 0 mm 1 mps 631 mmHg 88%
20:00 +12°C° 0 mm 1 mps 631 mmHg 88%
21:00 +12°C° 0 mm 1 mps 631 mmHg 88%
22:00 +11°C° 0 mm 1 mps 631 mmHg 88%
23:00 +11°C° 0 mm 1 mps 631 mmHg 89%

Tomorrow, 25 September, Friday

Time Temperature Precipitation Wind Pressure Humidity
00:00 +11°C° 0 mm 1 mps 630 mmHg 90%
01:00 +11°C° 0 mm 1 mps 630 mmHg 90%
02:00 +11°C° 0 mm 1 mps 630 mmHg 90%
03:00 +12°C° 0 mm 1 mps 630 mmHg 90%
04:00 +12°C° 0 mm 1 mps 630 mmHg 90%
05:00 +12°C° 0 mm 1 mps 630 mmHg 90%
06:00 +12°C° 0 mm 1 mps 630 mmHg 90%
07:00 +14°C° 0.1 mm 1 mps 631 mmHg 84%
08:00 +15°C° 0.1 mm 1 mps 631 mmHg 77%
09:00 +17°C° 0.1 mm 2 mps 632 mmHg 71%
10:00 +18°C° 0.8 mm 2 mps 632 mmHg 69%
11:00 +19°C° 0.8 mm 2 mps 632 mmHg 68%
12:00 +19°C° 0.8 mm 2 mps 632 mmHg 66%
13:00 +19°C° 0.6 mm 2 mps 632 mmHg 66%
14:00 +19°C° 0.6 mm 2 mps 631 mmHg 66%
15:00 +19°C° 0.6 mm 2 mps 631 mmHg 65%
16:00 +18°C° 0.3 mm 2 mps 630 mmHg 72%
17:00 +16°C° 0.3 mm 1 mps 630 mmHg 78%
18:00 +14°C° 0.3 mm 1 mps 629 mmHg 85%
19:00 +14°C° 0.1 mm 1 mps 629 mmHg 86%
20:00 +14°C° 0.1 mm 1 mps 630 mmHg 86%
21:00 +14°C° 0.1 mm 1 mps 630 mmHg 87%
22:00 +14°C° 0.2 mm 1 mps 630 mmHg 86%
23:00 +14°C° 0.2 mm 1 mps 630 mmHg 86%

Day after tomorrow, 26 September, Saturday

Time Temperature Precipitation Wind Pressure Humidity
00:00 +13°C° 0.2 mm 1 mps 629 mmHg 86%
01:00 +13°C° 0 mm 1 mps 629 mmHg 88%
02:00 +12°C° 0 mm 1 mps 629 mmHg 89%
03:00 +12°C° 0 mm 1 mps 628 mmHg 90%
04:00 +12°C° 0.3 mm 1 mps 628 mmHg 90%
05:00 +12°C° 0.3 mm 1 mps 628 mmHg 90%
06:00 +13°C° 0.3 mm 1 mps 629 mmHg 90%
07:00 +14°C° 0.1 mm 1 mps 629 mmHg 86%
08:00 +15°C° 0.1 mm 1 mps 629 mmHg 82%
09:00 +16°C° 0.1 mm 1 mps 630 mmHg 78%
10:00 +17°C° 0.5 mm 2 mps 630 mmHg 75%
11:00 +18°C° 0.5 mm 2 mps 630 mmHg 71%
12:00 +19°C° 0.5 mm 2 mps 630 mmHg 67%
13:00 +19°C° 0.8 mm 2 mps 630 mmHg 68%
14:00 +18°C° 0.8 mm 2 mps 630 mmHg 68%
15:00 +18°C° 0.8 mm 2 mps 630 mmHg 68%
16:00 +16°C° 0.4 mm 2 mps 630 mmHg 73%
17:00 +15°C° 0.4 mm 1 mps 629 mmHg 78%
18:00 +13°C° 0.4 mm 1 mps 629 mmHg 83%
19:00 +13°C° 0 mm 1 mps 629 mmHg 82%
20:00 +13°C° 0 mm 1 mps 629 mmHg 82%
21:00 +12°C° 0 mm 1 mps 630 mmHg 81%
22:00 +12°C° 0 mm 1 mps 629 mmHg 81%
23:00 +11°C° 0 mm 1 mps 629 mmHg 82%

27 September, Sunday

Time Temperature Precipitation Wind Pressure Humidity
00:00 +11°C° 0 mm 1 mps 629 mmHg 82%
01:00 +11°C° 0 mm 1 mps 629 mmHg 82%
02:00 +10°C° 0 mm 1 mps 629 mmHg 82%
03:00 +10°C° 0 mm 1 mps 629 mmHg 81%
04:00 +10°C° 0 mm 1 mps 629 mmHg 81%
05:00 +10°C° 0 mm 1 mps 629 mmHg 80%
06:00 +10°C° 0 mm 1 mps 629 mmHg 80%
07:00 +12°C° 0 mm 1 mps 630 mmHg 73%
08:00 +14°C° 0 mm 1 mps 631 mmHg 67%
09:00 +16°C° 0 mm 2 mps 632 mmHg 60%
10:00 +17°C° 0 mm 2 mps 632 mmHg 57%
11:00 +19°C° 0 mm 2 mps 633 mmHg 53%
12:00 +20°C° 0 mm 2 mps 633 mmHg 50%
13:00 +19°C° 0.1 mm 2 mps 633 mmHg 51%
14:00 +19°C° 0.1 mm 2 mps 633 mmHg 52%
15:00 +19°C° 0.1 mm 2 mps 633 mmHg 53%
16:00 +18°C° 0.1 mm 1 mps 633 mmHg 60%
17:00 +15°C° 0.1 mm 1 mps 632 mmHg 67%
18:00 +14°C° 0.1 mm 1 mps 632 mmHg 74%
19:00 +12°C° 0 mm 0 mps 632 mmHg 75%
20:00 +12°C° 0 mm 0 mps 633 mmHg 76%
21:00 +11°C° 0 mm 0 mps 633 mmHg 77%
22:00 +11°C° 0 mm 0 mps 633 mmHg 77%
23:00 +11°C° 0 mm 1 mps 633 mmHg 78%

28 September, Monday

Time Temperature Precipitation Wind Pressure Humidity
00:00 +11°C° 0 mm 1 mps 633 mmHg 78%
01:00 +10°C° 0 mm 1 mps 633 mmHg 79%
02:00 +10°C° 0 mm 1 mps 633 mmHg 79%
03:00 +9°C° 0 mm 0 mps 633 mmHg 80%
04:00 +9°C° 0 mm 0 mps 633 mmHg 79%
05:00 +9°C° 0 mm 0 mps 633 mmHg 79%
06:00 +9°C° 0 mm 0 mps 633 mmHg 79%
07:00 +12°C° 0 mm 1 mps 634 mmHg 72%
08:00 +14°C° 0 mm 1 mps 635 mmHg 65%
09:00 +18°C° 0 mm 1 mps 636 mmHg 57%
10:00 +19°C° 0 mm 1 mps 636 mmHg 55%
11:00 +19°C° 0 mm 2 mps 636 mmHg 52%
12:00 +19°C° 0 mm 2 mps 636 mmHg 49%
13:00 +19°C° 0 mm 2 mps 636 mmHg 51%
14:00 +19°C° 0 mm 2 mps 636 mmHg 52%
15:00 +18°C° 0 mm 2 mps 636 mmHg 54%
16:00 +16°C° 0 mm 2 mps 635 mmHg 61%
17:00 +14°C° 0 mm 1 mps 635 mmHg 68%
18:00 +13°C° 0 mm 1 mps 634 mmHg 75%
19:00 +12°C° 0 mm 1 mps 634 mmHg 76%
20:00 +11°C° 0 mm 1 mps 634 mmHg 77%
21:00 +10°C° 0 mm 1 mps 634 mmHg 78%
22:00 +10°C° 0 mm 1 mps 633 mmHg 79%
23:00 +9°C° 0 mm 1 mps 633 mmHg 80%

29 September, Tuesday

Time Temperature Precipitation Wind Pressure Humidity
00:00 +9°C° 0 mm 1 mps 633 mmHg 81%
01:00 +9°C° 0 mm 1 mps 633 mmHg 81%
02:00 +9°C° 0 mm 1 mps 632 mmHg 82%
03:00 +8°C° 0 mm 1 mps 632 mmHg 82%
04:00 +8°C° 0 mm 1 mps 632 mmHg 82%
05:00 +8°C° 0 mm 1 mps 632 mmHg 81%
06:00 +7°C° 0 mm 0 mps 632 mmHg 80%
07:00 +11°C° 0 mm 1 mps 633 mmHg 71%
08:00 +14°C° 0 mm 1 mps 634 mmHg 63%
09:00 +18°C° 0 mm 1 mps 634 mmHg 54%
10:00 +19°C° 0 mm 1 mps 635 mmHg 52%
11:00 +20°C° 0 mm 1 mps 635 mmHg 49%
12:00 +20°C° 0 mm 2 mps 635 mmHg 46%
13:00 +20°C° 0 mm 2 mps 634 mmHg 48%
14:00 +19°C° 0 mm 2 mps 634 mmHg 50%
15:00 +19°C° 0 mm 2 mps 633 mmHg 52%
16:00 +18°C° 0 mm 1 mps 633 mmHg 60%
17:00 +15°C° 0 mm 1 mps 632 mmHg 67%
18:00 +13°C° 0 mm 1 mps 632 mmHg 75%
19:00 +12°C° 0 mm 1 mps 632 mmHg 75%
20:00 +12°C° 0 mm 1 mps 631 mmHg 75%
21:00 +11°C° 0 mm 1 mps 631 mmHg 75%
22:00 +11°C° 0 mm 1 mps 631 mmHg 76%
23:00 +10°C° 0 mm 1 mps 630 mmHg 77%
Show more